TimeCST,TemperatureF,Dew PointF,Humidity,Sea Level PressureIn,VisibilityMPH,Wind Direction,Wind SpeedMPH,Gust SpeedMPH,PrecipitationIn,Events,Conditions,WindDirDegrees,DateUTC
12:09 AM,15.8,10.4,79,30.36,10.0,WNW,3.5,-,N/A,,Mostly Cloudy,290,2012-12-05 06:09:00
12:29 AM,14.0,10.4,86,30.36,10.0,West,3.5,-,N/A,,Scattered Clouds,280,2012-12-05 06:29:00
12:50 AM,12.2,10.4,92,30.36,10.0,Calm,Calm,-,N/A,,Clear,0,2012-12-05 06:50:00
1:09 AM,12.2,10.4,92,30.35,10.0,Calm,Calm,-,N/A,,Clear,0,2012-12-05 07:09:00
1:50 AM,8.6,3.2,79,30.35,10.0,Calm,Calm,-,N/A,,Clear,0,2012-12-05 07:50:00
2:09 AM,8.6,5.0,85,30.36,10.0,Calm,Calm,-,N/A,,Clear,0,2012-12-05 08:09:00
2:30 AM,8.6,5.0,85,30.36,10.0,Calm,Calm,-,N/A,,Clear,0,2012-12-05 08:30:00
2:50 AM,6.8,3.2,85,30.35,10.0,Calm,Calm,-,N/A,,Clear,0,2012-12-05 08:50:00
3:09 AM,6.8,3.2,85,30.35,10.0,Calm,Calm,-,N/A,,Clear,0,2012-12-05 09:09:00
3:30 AM,5.0,3.2,92,30.36,10.0,Calm,Calm,-,N/A,,Clear,0,2012-12-05 09:30:00
3:50 AM,5.0,3.2,92,30.36,10.0,Calm,Calm,-,N/A,,Clear,0,2012-12-05 09:50:00
4:09 AM,5.0,1.4,85,30.35,10.0,Calm,Calm,-,N/A,,Clear,0,2012-12-05 10:09:00
4:30 AM,5.0,1.4,85,30.35,10.0,Calm,Calm,-,N/A,,Clear,0,2012-12-05 10:30:00
4:50 AM,5.0,1.4,85,30.35,10.0,Calm,Calm,-,N/A,,Clear,0,2012-12-05 10:50:00
5:09 AM,5.0,1.4,85,30.34,10.0,Calm,Calm,-,N/A,,Clear,0,2012-12-05 11:09:00
5:29 AM,5.0,1.4,85,30.34,10.0,Calm,Calm,-,N/A,,Clear,0,2012-12-05 11:29:00
5:49 AM,5.0,1.4,85,30.34,10.0,Calm,Calm,-,N/A,,Clear,0,2012-12-05 11:49:00
6:10 AM,5.0,1.4,85,30.33,10.0,Calm,Calm,-,N/A,,Clear,0,2012-12-05 12:10:00
6:29 AM,5.0,1.4,85,30.34,10.0,Calm,Calm,-,N/A,,Clear,0,2012-12-05 12:29:00
6:49 AM,5.0,3.2,92,30.33,10.0,Calm,Calm,-,N/A,,Clear,0,2012-12-05 12:49:00
8:29 AM,8.6,5.0,85,30.34,10.0,Calm,Calm,-,N/A,,Clear,0,2012-12-05 14:29:00
8:49 AM,10.4,6.8,85,30.34,10.0,Calm,Calm,-,N/A,,Mostly Cloudy,0,2012-12-05 14:49:00
9:09 AM,12.2,10.4,92,30.33,10.0,Calm,Calm,-,N/A,,Scattered Clouds,0,2012-12-05 15:09:00
9:29 AM,15.8,12.2,86,30.33,10.0,Calm,Calm,-,N/A,,Clear,0,2012-12-05 15:29:00
9:50 AM,17.6,15.8,93,30.30,10.0,SE,4.6,-,N/A,,Clear,140,2012-12-05 15:50:00
10:09 AM,19.4,14.0,80,30.29,10.0,SE,5.8,-,N/A,,Clear,140,2012-12-05 16:09:00
10:30 AM,23.0,19.4,86,30.28,10.0,SSE,8.1,-,N/A,,Clear,150,2012-12-05 16:30:00
10:50 AM,23.0,17.6,80,30.26,10.0,SSE,15.0,18.4,N/A,,Clear,160,2012-12-05 16:50:00
11:09 AM,24.8,17.6,74,30.24,10.0,SSE,11.5,20.7,N/A,,Clear,150,2012-12-05 17:09:00
11:30 AM,24.8,15.8,69,30.21,10.0,SSE,15.0,21.9,N/A,,Clear,150,2012-12-05 17:30:00
11:49 AM,24.8,15.8,69,30.22,10.0,South,13.8,19.6,N/A,,Clear,170,2012-12-05 17:49:00
12:09 PM,24.8,14.0,64,30.21,10.0,SSE,13.8,23.0,N/A,,Clear,150,2012-12-05 18:09:00
12:30 PM,26.6,15.8,64,30.20,10.0,SSE,13.8,19.6,N/A,,Clear,150,2012-12-05 18:30:00
12:49 PM,26.6,14.0,59,30.18,10.0,SSE,11.5,18.4,N/A,,Clear,150,2012-12-05 18:49:00
1:09 PM,26.6,14.0,59,30.15,10.0,SE,12.7,16.1,N/A,,Clear,140,2012-12-05 19:09:00
1:30 PM,26.6,14.0,59,30.14,10.0,SE,9.2,-,N/A,,Scattered Clouds,130,2012-12-05 19:30:00
1:49 PM,26.6,14.0,59,30.13,10.0,SE,11.5,18.4,N/A,,Scattered Clouds,130,2012-12-05 19:49:00
2:09 PM,26.6,14.0,59,30.11,10.0,SE,8.1,16.1,N/A,,Clear,140,2012-12-05 20:09:00
2:30 PM,26.6,14.0,59,30.09,10.0,SE,11.5,16.1,N/A,,Clear,140,2012-12-05 20:30:00
2:49 PM,26.6,15.8,64,30.07,10.0,SE,10.4,16.1,N/A,,Clear,130,2012-12-05 20:49:00
3:09 PM,26.6,14.0,59,30.06,10.0,ESE,12.7,18.4,N/A,,Clear,120,2012-12-05 21:09:00
3:30 PM,26.6,15.8,64,30.05,10.0,SE,10.4,-,N/A,,Mostly Cloudy,140,2012-12-05 21:30:00
3:49 PM,-9999,-9999,N/A,30.04,10.0,SE,12.7,16.1,N/A,,Overcast,140,2012-12-05 21:49:00
4:10 PM,26.6,17.6,69,30.03,10.0,SE,9.2,-,N/A,,Overcast,140,2012-12-05 22:10:00
4:30 PM,26.6,17.6,69,30.01,10.0,SE,12.7,16.1,N/A,,Overcast,140,2012-12-05 22:30:00
4:49 PM,26.6,17.6,69,30.00,10.0,SE,13.8,19.6,N/A,,Overcast,140,2012-12-05 22:49:00
5:10 PM,26.6,17.6,69,29.98,10.0,SE,10.4,17.3,N/A,,Overcast,140,2012-12-05 23:10:00
5:30 PM,28.4,17.6,64,29.96,10.0,SE,11.5,16.1,N/A,,Mostly Cloudy,140,2012-12-05 23:30:00
5:49 PM,28.4,17.6,64,29.95,10.0,SE,10.4,19.6,N/A,,Clear,140,2012-12-05 23:49:00
6:10 PM,28.4,17.6,64,29.93,10.0,SE,9.2,16.1,N/A,,Clear,140,2012-12-06 00:10:00
6:30 PM,28.4,17.6,64,29.91,10.0,SE,12.7,18.4,N/A,,Clear,140,2012-12-06 00:30:00
6:49 PM,30.2,19.4,64,29.90,10.0,SSE,10.4,17.3,N/A,,Clear,160,2012-12-06 00:49:00
7:10 PM,30.2,17.6,60,29.90,10.0,SSE,12.7,17.3,N/A,,Clear,160,2012-12-06 01:10:00
7:30 PM,30.2,19.4,64,29.88,10.0,South,13.8,19.6,N/A,,Scattered Clouds,170,2012-12-06 01:30:00
7:49 PM,30.2,17.6,60,29.89,10.0,SSE,11.5,-,N/A,,Scattered Clouds,160,2012-12-06 01:49:00
8:10 PM,30.2,17.6,60,29.88,10.0,SSE,15.0,18.4,N/A,,Clear,160,2012-12-06 02:10:00
8:29 PM,30.2,17.6,60,-9999,10.0,SSE,12.7,-,N/A,,Clear,160,2012-12-06 02:29:00
8:50 PM,30.2,19.4,64,29.86,10.0,SSE,10.4,16.1,N/A,,Clear,160,2012-12-06 02:50:00
9:09 PM,30.2,19.4,64,29.85,10.0,SSE,6.9,-,N/A,,Scattered Clouds,160,2012-12-06 03:09:00
9:29 PM,30.2,19.4,64,29.84,10.0,SSE,10.4,-,N/A,,Clear,160,2012-12-06 03:29:00
9:50 PM,30.2,19.4,64,29.83,10.0,SSE,10.4,16.1,N/A,,Clear,160,2012-12-06 03:50:00
10:10 PM,30.2,17.6,60,29.82,10.0,South,9.2,-,N/A,,Clear,170,2012-12-06 04:10:00
10:29 PM,32.0,19.4,60,29.81,10.0,South,8.1,-,N/A,,Mostly Cloudy,170,2012-12-06 04:29:00
10:49 PM,32.0,19.4,60,29.80,10.0,South,10.4,-,N/A,,Overcast,170,2012-12-06 04:49:00
11:10 PM,32.0,19.4,60,29.80,10.0,South,13.8,19.6,N/A,,Overcast,180,2012-12-06 05:10:00
11:29 PM,32.0,19.4,60,29.79,10.0,South,12.7,16.1,N/A,,Overcast,170,2012-12-06 05:29:00
11:49 PM,32.0,19.4,60,29.79,10.0,South,6.9,-,N/A,,Overcast,190,2012-12-06 05:49:00